Showing default

OPS 9333 (IDSCS 18), 2864

Orbit data source: Space-Track

OPS 9333 (IDSCS 18), 2864 is a payload satellite owned by SAMSO (US) in GEO that was launched on Sat, 01 Jul 1967 UTC via a TITAN IIIC launch vehicle from the Air Force Eastern Test Range (AFETR). Payload-class satellites include a variety of spacecraft equipped with specific instruments for various scientific and technological missions. These include communications satellites like Starlink; space stations such as the ISS; scientific satellites like the Hubble; Earth observation satellites from companies like Planet Labs, Umbra, and HawkEye 360; GPS; miniature CubeSats for education and research; and military/defense satellites.

Not visible in the next 10 days
Identifier
2864, 1967-066C
Orbit
GEO
Country
Flag of USUS
Related business
Manufacturer
Philco-Ford WDL
Mission
Non-operational spacecraft
Bus & Motor
IDCSP, Unknown motor
Mass
45 kg wet, 45 kg dry
Launch date (UTC)
1967-07-01 (59 years ago)
Launch vehicle
TITAN IIIC
Launch site
Air Force Eastern Test Range (AFETR)
Object type
Payload
Rocket body
Debris
Shape & HBR
Unknown
Radar Cross Section
Medium (>0.1 m² and <1 m²)

Expand to show TLE details & history
Last TLE update: 14 hours ago

TLE from 14 hours ago
0 OPS 9333 (IDSCS 18)
1 02864U 67066C   26128.11141638 -.00000048  00000-0  00000-0 0  9992
2 02864   2.6933  96.8198 0058383 235.3210 270.8464  1.09785983131106
Epoch: 2026-05-08T02:40Z
TLE epoch observation values (Epoch: 2026-05-08T02:40:26.375Z)
Latitude
1.51497°
Longitude
-23.71254°
Altitude
33,311.592 km
Speed
3.169 km/s
True Right ascension
16h 09m 22s
True Declination
1° 30' 48"
Sunlit
Object was in daylight at epoch
Visualization orbit readout
Latitude
Unknown
Longitude
Unknown
Altitude
Unknown
Speed
Unknown
Apparent Right ascension
Unknown
Apparent Declination
Unknown
Sunlit
N/A
Visualization observer readout
Local Sidereal Time
01:02:47
Azimuth
Unknown
Elevation
Unknown
Doppler factor
Unknown
Orbital elements
Apogee altitude
33,546.819 km
Perigee altitude
33,083.337 km
Semi-major axis
39,693.215 km
Eccentricity
0.00584
Inclination
2.6933°
RAAN
96.8198°
Arg. of periapsis
235.321°
True anomaly
270.1774°
Mean anomaly
270.8464°
Eccentric anomaly
270.5119°
Mean motion
0.27445 °/min
Orbital period
1,311.7 mins
BSTAR
0
Loading maneuver chart data...
Computing Atmospheric mass density...
Loading historical data...
Loading historical data...
Loading historical data...
Loading historical data...
Loading historical data...
Loading historical data...
Loading historical data...

Documentation

Showing up to 5 results
|